| time (UTC) | temp F | wind direction | speed MPH | gust MPH | rain 1hr in | rain 24hr in | rain mn in | humidity % | barometer mb |
| 20260905180049 | 66 | 224 | 2.0 | 10.0 | 0.00 | 0.00 | 0.00 | 57 | 1021.0 |
| 20260905174559 | 67 | 210 | 2.0 | 9.0 | 0.00 | 0.00 | 0.00 | 57 | 1020.9 |
| 20260905173054 | 67 | 0 | 3.0 | 7.0 | 0.00 | 0.00 | 0.00 | 57 | 1020.5 |
| 20260905171553 | 67 | 226 | 1.0 | 8.0 | 0.00 | 0.00 | 0.00 | 57 | 1020.5 |
| 20260905170049 | 66 | 0 | 0.0 | 5.0 | 0.00 | 0.00 | 0.00 | 58 | 1020.4 |
| 20260905164555 | 66 | 220 | 2.0 | 7.0 | 0.00 | 0.00 | 0.00 | 58 | 1020.7 |
| 20260905163100 | 66 | 0 | 0.0 | 8.0 | 0.00 | 0.00 | 0.00 | 58 | 1020.5 |
| 20260905161558 | 66 | 262 | 0.0 | 5.0 | 0.00 | 0.00 | 0.00 | 59 | 1020.4 |
| 20260905160058 | 66 | 244 | 1.0 | 5.0 | 0.00 | 0.00 | 0.00 | 60 | 1020.6 |
| 20260905154554 | 65 | 0 | 0.0 | 6.0 | 0.00 | 0.00 | 0.00 | 60 | 1020.8 |
| 20260905153057 | 65 | 0 | 2.0 | 5.0 | 0.00 | 0.00 | 0.00 | 60 | 1020.7 |
| 20260905151553 | 66 | 0 | 1.0 | 5.0 | 0.00 | 0.00 | 0.00 | 60 | 1021.0 |
| 20260905150055 | 66 | 259 | 0.0 | 5.0 | 0.00 | 0.00 | 0.00 | 60 | 1021.2 |
| 20260905144555 | 66 | 255 | 1.0 | 8.0 | 0.00 | 0.00 | 0.00 | 60 | 1021.1 |
| 20260905143056 | 67 | 246 | 1.0 | 9.0 | 0.00 | 0.00 | 0.00 | 59 | 1021.4 |
| 20260905141619 | 67 | 250 | 0.0 | 10.0 | 0.00 | 0.00 | 0.00 | 58 | 1021.4 |
| 20260905140056 | 67 | 0 | 1.0 | 8.0 | 0.00 | 0.00 | 0.00 | 57 | 1021.4 |
| 20260905134553 | 67 | 280 | 1.0 | 11.0 | 0.00 | 0.00 | 0.00 | 57 | 1021.4 |
| 20260905133055 | 68 | 0 | 1.0 | 7.0 | 0.00 | 0.00 | 0.00 | 56 | 1021.4 |
| 20260905131610 | 68 | 0 | 0.0 | 0.0 | 0.00 | 0.00 | 0.00 | 55 | 1021.6 |
| 20260905130100 | 67 | 0 | 0.0 | 0.0 | 0.00 | 0.00 | 0.00 | 54 | 1021.7 |
| 20260905124552 | 67 | 0 | 0.0 | 0.0 | 0.00 | 0.00 | 0.00 | 53 | 1021.8 |
| 20260905123100 | 67 | 0 | 0.0 | 0.0 | 0.00 | 0.00 | 0.00 | 53 | 1021.9 |
| 20260905121552 | 67 | 0 | 0.0 | 0.0 | 0.00 | 0.00 | 0.00 | 53 | 1021.8 |
| 20260905120058 | 66 | 0 | 0.0 | 0.0 | 0.00 | 0.00 | 0.00 | 52 | 1021.9 |
| 20260905114547 | 66 | 0 | 0.0 | 0.0 | 0.00 | 0.00 | 0.00 | 51 | 1022.0 |
| 20260905113101 | 67 | 0 | 0.0 | 0.0 | 0.00 | 0.00 | 0.00 | 50 | 1022.0 |
| 20260905111557 | 67 | 0 | 0.0 | 0.0 | 0.00 | 0.00 | 0.00 | 49 | 1022.0 |
| 20260905110046 | 67 | 0 | 0.0 | 0.0 | 0.00 | 0.00 | 0.00 | 49 | 1021.9 |
| 20260905104555 | 68 | 0 | 0.0 | 0.0 | 0.00 | 0.00 | 0.00 | 49 | 1022.0 |
| 20260905103056 | 68 | 0 | 0.0 | 0.0 | 0.00 | 0.00 | 0.00 | 48 | 1021.9 |
| 20260905101618 | 68 | 0 | 0.0 | 0.0 | 0.00 | 0.00 | 0.00 | 49 | 1021.9 |
| 20260905100055 | 69 | 0 | 0.0 | 0.0 | 0.00 | 0.00 | 0.00 | 49 | 1021.9 |
| 20260905094555 | 69 | 0 | 0.0 | 0.0 | 0.00 | 0.00 | 0.00 | 47 | 1021.9 |
| 20260905093050 | 70 | 0 | 0.0 | 0.0 | 0.00 | 0.00 | 0.00 | 47 | 1021.8 |
| 20260905091609 | 71 | 0 | 0.0 | 0.0 | 0.00 | 0.00 | 0.00 | 46 | 1021.6 |
| 20260905090055 | 72 | 0 | 0.0 | 0.0 | 0.00 | 0.00 | 0.00 | 46 | 1021.5 |
| 20260905084607 | 73 | 0 | 0.0 | 0.0 | 0.00 | 0.00 | 0.00 | 44 | 1021.4 |
| 20260905083049 | 74 | 0 | 0.0 | 0.0 | 0.00 | 0.00 | 0.00 | 43 | 1021.2 |
| 20260905081559 | 75 | 0 | 0.0 | 0.0 | 0.00 | 0.00 | 0.00 | 42 | 1021.3 |
| 20260905080055 | 77 | 0 | 0.0 | 0.0 | 0.00 | 0.00 | 0.00 | 41 | 1021.0 |
| 20260905074558 | 78 | 0 | 0.0 | 0.0 | 0.00 | 0.00 | 0.00 | 39 | 1020.9 |
| 20260905073058 | 79 | 0 | 0.0 | 2.0 | 0.00 | 0.00 | 0.00 | 39 | 1020.7 |
| 20260905071600 | 80 | 0 | 0.0 | 3.0 | 0.00 | 0.00 | 0.00 | 38 | 1020.6 |
| 20260905070108 | 80 | 0 | 0.0 | 4.0 | 0.00 | 0.00 | 0.00 | 37 | 1020.4 |
| 20260905064554 | 81 | 0 | 0.0 | 2.0 | 0.00 | 0.00 | 0.00 | 37 | 1020.5 |
| 20260905063058 | 81 | 69 | 1.0 | 5.0 | 0.00 | 0.00 | 0.00 | 37 | 1020.3 |
| 20260905061616 | 82 | 51 | 0.0 | 3.0 | 0.00 | 0.00 | 0.00 | 35 | 1020.2 |
| 20260905060059 | 82 | 46 | 0.0 | 4.0 | 0.00 | 0.00 | 0.00 | 33 | 1020.3 |
| 20260905054552 | 82 | 52 | 0.0 | 5.0 | 0.00 | 0.00 | 0.00 | 34 | 1020.4 |
| 20260905053110 | 82 | 0 | 0.0 | 4.0 | 0.00 | 0.00 | 0.00 | 34 | 1020.3 |
| 20260905051556 | 81 | 0 | 0.0 | 4.0 | 0.00 | 0.00 | 0.00 | 34 | 1020.3 |
| 20260905050055 | 83 | 0 | 0.0 | 4.0 | 0.00 | 0.00 | 0.00 | 34 | 1020.5 |
| 20260905044554 | 82 | 38 | 0.0 | 5.0 | 0.00 | 0.00 | 0.00 | 34 | 1020.4 |
| 20260905043059 | 82 | 0 | 0.0 | 3.0 | 0.00 | 0.00 | 0.00 | 32 | 1020.6 |
| 20260905041554 | 84 | 0 | 0.0 | 3.0 | 0.00 | 0.00 | 0.00 | 30 | 1020.8 |
| 20260905040056 | 84 | 0 | 0.0 | 10.0 | 0.00 | 0.00 | 0.00 | 31 | 1021.0 |
| 20260905034553 | 84 | 0 | 0.0 | 4.0 | 0.00 | 0.00 | 0.00 | 30 | 1021.1 |
| 20260905033054 | 84 | 0 | 0.0 | 4.0 | 0.00 | 0.00 | 0.00 | 30 | 1021.4 |
| 20260905031559 | 83 | 18 | 0.0 | 4.0 | 0.00 | 0.00 | 0.00 | 32 | 1021.7 |
| 20260905024615 | 82 | 281 | 0.0 | 3.0 | 0.00 | 0.00 | 0.00 | 35 | 1022.3 |
| 20260905023059 | 81 | 0 | 0.0 | 2.0 | 0.00 | 0.00 | 0.00 | 36 | 1022.6 |
| 20260905021556 | 80 | 37 | 0.0 | 2.0 | 0.00 | 0.00 | 0.00 | 37 | 1022.9 |
| 20260905020054 | 79 | 0 | 0.0 | 3.0 | 0.00 | 0.00 | 0.00 | 40 | 1023.5 |
| 20260905014558 | 78 | 0 | 0.0 | 4.0 | 0.00 | 0.00 | 0.00 | 45 | 1023.6 |
| 20260905013056 | 78 | 0 | 0.0 | 8.0 | 0.00 | 0.00 | 0.00 | 46 | 1023.8 |
| 20260905011600 | 77 | 0 | 0.0 | 3.0 | 0.00 | 0.00 | 0.00 | 50 | 1024.4 |
| 20260905010054 | 77 | 0 | 0.0 | 3.0 | 0.00 | 0.00 | 0.00 | 51 | 1024.4 |
| 20260905004558 | 77 | 0 | 0.0 | 3.0 | 0.00 | 0.00 | 0.00 | 49 | 1024.8 |
| 20260905003157 | 77 | 0 | 0.0 | 4.0 | 0.00 | 0.00 | 0.00 | 50 | 1024.9 |
| 20260905001555 | 76 | 9 | 0.0 | 3.0 | 0.00 | 0.00 | 0.00 | 54 | 1025.2 |
| 20260905000059 | 75 | 0 | 0.0 | 0.0 | 0.00 | 0.00 | 0.00 | 52 | 1025.3 |
| 20260904234557 | 74 | 0 | 0.0 | 1.0 | 0.00 | 0.00 | 0.00 | 54 | 1025.3 |
| 20260904233102 | 75 | 0 | 0.0 | 0.0 | 0.00 | 0.00 | 0.00 | 51 | 1025.6 |
| 20260904231555 | 74 | 0 | 0.0 | 0.0 | 0.00 | 0.00 | 0.00 | 49 | 1025.6 |
| 20260904230059 | 73 | 0 | 0.0 | 0.0 | 0.00 | 0.00 | 0.00 | 50 | 1025.6 |
| 20260904224558 | 74 | 0 | 0.0 | 0.0 | 0.00 | 0.00 | 0.00 | 43 | 1025.7 |
| 20260904223109 | 74 | 0 | 0.0 | 0.0 | 0.00 | 0.00 | 0.00 | 30 | 1025.8 |
| 20260904221600 | 73 | 0 | 0.0 | 0.0 | 0.00 | 0.00 | 0.00 | 25 | 1025.7 |
| 20260904220054 | 71 | 0 | 0.0 | 0.0 | 0.00 | 0.00 | 0.00 | 31 | 1025.6 |
| 20260904214602 | 69 | 0 | 0.0 | 0.0 | 0.00 | 0.00 | 0.00 | 40 | 1025.5 |
| 20260904213054 | 67 | 0 | 0.0 | 0.0 | 0.00 | 0.00 | 0.00 | 42 | 1025.3 |
| 20260904211555 | 66 | 0 | 0.0 | 0.0 | 0.00 | 0.00 | 0.00 | 46 | 1025.5 |
| 20260904210055 | 62 | 0 | 0.0 | 0.0 | 0.00 | 0.00 | 0.00 | 51 | 1025.3 |
| 20260904204555 | 60 | 0 | 0.0 | 0.0 | 0.00 | 0.00 | 0.00 | 52 | 1025.1 |
| 20260904203058 | 59 | 0 | 0.0 | 0.0 | 0.00 | 0.00 | 0.00 | 52 | 1025.1 |
| 20260904201602 | 59 | 0 | 0.0 | 0.0 | 0.00 | 0.00 | 0.00 | 52 | 1025.1 |
| 20260904200058 | 61 | 0 | 0.0 | 0.0 | 0.00 | 0.00 | 0.00 | 50 | 1024.9 |
| 20260904194554 | 62 | 0 | 0.0 | 0.0 | 0.00 | 0.00 | 0.00 | 50 | 1024.8 |
| 20260904193056 | 62 | 0 | 0.0 | 0.0 | 0.00 | 0.00 | 0.00 | 48 | 1024.6 |
| 20260904191554 | 63 | 0 | 0.0 | 9.0 | 0.00 | 0.00 | 0.00 | 48 | 1024.4 |
| 20260904190056 | 63 | 167 | 2.0 | 11.0 | 0.00 | 0.00 | 0.00 | 49 | 1024.2 |
| 20260904184601 | 63 | 144 | 3.0 | 8.0 | 0.00 | 0.00 | 0.00 | 49 | 1024.3 |
| 20260904183056 | 63 | 154 | 2.0 | 8.0 | 0.00 | 0.00 | 0.00 | 49 | 1024.2 |
| 20260904181557 | 63 | 123 | 3.0 | 9.0 | 0.00 | 0.00 | 0.00 | 49 | 1024.2 |